| time (UTC) | temp F | wind direction | speed MPH | gust MPH | rain 1hr in | rain 24hr in | rain mn in | humidity % | barometer mb |
| 20260503173533 | 68 | 12 | 0.0 | 0.0 | 0.00 | 0.00 | 0.00 | 10 | 1013.7 |
| 20260503173029 | 69 | 12 | 0.0 | 3.0 | 0.00 | 0.00 | 0.00 | 10 | 1013.9 |
| 20260503172527 | 68 | 356 | 1.0 | 2.0 | 0.00 | 0.00 | 0.00 | 10 | 1013.9 |
| 20260503172024 | 68 | 24 | 0.0 | 0.0 | 0.00 | 0.00 | 0.00 | 10 | 1013.9 |
| 20260503171520 | 68 | 29 | 0.0 | 2.0 | 0.00 | 0.00 | 0.00 | 10 | 1013.7 |
| 20260503171018 | 68 | 22 | 0.0 | 0.0 | 0.00 | 0.00 | 0.00 | 10 | 1014.0 |
| 20260503170514 | 67 | 19 | 0.0 | 1.0 | 0.00 | 0.00 | 0.00 | 10 | 1013.9 |
| 20260503150906 | 64 | 30 | 0.0 | 0.0 | 0.00 | 0.00 | 0.00 | 10 | 1014.2 |
| 20260503150403 | 63 | 21 | 0.0 | 0.0 | 0.00 | 0.00 | 0.00 | 10 | 1014.4 |
| 20260503131256 | 52 | 303 | 0.0 | 0.0 | 0.00 | 0.00 | 0.00 | 10 | 1014.6 |
| 20260503130754 | 51 | 294 | 0.0 | 1.0 | 0.00 | 0.00 | 0.00 | 10 | 1014.6 |
| 20260503130251 | 50 | 299 | 0.0 | 2.0 | 0.00 | 0.00 | 0.00 | 10 | 1014.6 |
| 20260503120217 | 43 | 314 | 0.0 | 0.0 | 0.00 | 0.00 | 0.00 | 10 | 1015.1 |
| 20260503110644 | 46 | 302 | 0.0 | 0.0 | 0.00 | 0.00 | 0.00 | 10 | 1015.4 |
| 20260503110142 | 45 | 309 | 0.0 | 0.0 | 0.00 | 0.00 | 0.00 | 10 | 1015.4 |
| 20260503100109 | 42 | 293 | 0.0 | 0.0 | 0.00 | 0.00 | 0.00 | 10 | 1015.9 |
| 20260503081458 | 38 | 330 | 0.0 | 0.0 | 0.00 | 0.00 | 0.00 | 10 | 1016.8 |
| 20260503080955 | 38 | 305 | 0.0 | 0.0 | 0.00 | 0.00 | 0.00 | 10 | 1016.6 |
| 20260503080451 | 37 | 311 | 0.0 | 0.0 | 0.00 | 0.00 | 0.00 | 10 | 1016.6 |
| 20260503072927 | 38 | 341 | 0.0 | 0.0 | 0.00 | 0.00 | 0.00 | 10 | 1016.9 |
| 20260503072425 | 38 | 315 | 0.0 | 0.0 | 0.00 | 0.00 | 0.00 | 10 | 1017.2 |
| 20260503071922 | 37 | 317 | 0.0 | 0.0 | 0.00 | 0.00 | 0.00 | 10 | 1017.2 |
| 20260503071419 | 37 | 11 | 0.0 | 0.0 | 0.00 | 0.00 | 0.00 | 10 | 1017.2 |
| 20260503070915 | 37 | 38 | 0.0 | 0.0 | 0.00 | 0.00 | 0.00 | 10 | 1017.2 |
| 20260503070412 | 38 | 36 | 0.0 | 0.0 | 0.00 | 0.00 | 0.00 | 10 | 1017.4 |
| 20260503060338 | 40 | 41 | 0.0 | 0.0 | 0.00 | 0.00 | 0.00 | 10 | 1017.2 |
| 20260503054826 | 41 | 17 | 0.0 | 0.0 | 0.00 | 0.00 | 0.00 | 10 | 1017.4 |
| 20260503054321 | 42 | 2 | 0.0 | 0.0 | 0.00 | 0.00 | 0.00 | 10 | 1017.3 |
| 20260503053820 | 41 | 34 | 0.0 | 0.0 | 0.00 | 0.00 | 0.00 | 10 | 1017.4 |
| 20260503053318 | 44 | 24 | 0.0 | 0.0 | 0.00 | 0.00 | 0.00 | 10 | 1017.4 |
| 20260503052814 | 45 | 9 | 0.0 | 0.0 | 0.00 | 0.00 | 0.00 | 10 | 1017.5 |
| 20260503052311 | 44 | 310 | 0.0 | 0.0 | 0.00 | 0.00 | 0.00 | 10 | 1017.5 |
| 20260503051807 | 44 | 335 | 0.0 | 0.0 | 0.00 | 0.00 | 0.00 | 10 | 1017.6 |
| 20260503051303 | 46 | 332 | 0.0 | 0.0 | 0.00 | 0.00 | 0.00 | 10 | 1017.5 |
| 20260503050800 | 46 | 340 | 0.0 | 0.0 | 0.00 | 0.00 | 0.00 | 10 | 1017.7 |
| 20260503050256 | 47 | 340 | 0.0 | 0.0 | 0.00 | 0.00 | 0.00 | 10 | 1017.5 |
| 20260503045754 | 48 | 318 | 0.0 | 0.0 | 0.00 | 0.00 | 0.00 | 10 | 1017.5 |
| 20260503045252 | 49 | 347 | 0.0 | 0.0 | 0.00 | 0.00 | 0.00 | 10 | 1017.6 |
| 20260503044748 | 48 | 269 | 0.0 | 0.0 | 0.00 | 0.00 | 0.00 | 10 | 1017.5 |
| 20260503044245 | 47 | 298 | 0.0 | 0.0 | 0.00 | 0.00 | 0.00 | 10 | 1017.5 |
| 20260503043742 | 48 | 310 | 0.0 | 0.0 | 0.00 | 0.00 | 0.00 | 10 | 1017.7 |
| 20260503043239 | 45 | 301 | 0.0 | 0.0 | 0.00 | 0.00 | 0.00 | 10 | 1017.5 |
| 20260503042735 | 48 | 303 | 0.0 | 0.0 | 0.00 | 0.00 | 0.00 | 10 | 1017.6 |
| 20260503042232 | 47 | 33 | 0.0 | 0.0 | 0.00 | 0.00 | 0.00 | 10 | 1017.4 |
| 20260503041728 | 47 | 49 | 0.0 | 0.0 | 0.00 | 0.00 | 0.00 | 10 | 1017.4 |
| 20260503041226 | 52 | 64 | 0.0 | 0.0 | 0.00 | 0.00 | 0.00 | 10 | 1017.4 |
| 20260503040723 | 52 | 222 | 0.0 | 0.0 | 0.00 | 0.00 | 0.00 | 10 | 1017.2 |
| 20260503040221 | 51 | 48 | 0.0 | 0.0 | 0.00 | 0.00 | 0.00 | 10 | 1017.4 |
| 20260503035717 | 51 | 45 | 0.0 | 0.0 | 0.00 | 0.00 | 0.00 | 10 | 1017.7 |
| 20260503035215 | 52 | 44 | 0.0 | 0.0 | 0.00 | 0.00 | 0.00 | 10 | 1017.6 |
| 20260503034712 | 51 | 38 | 0.0 | 0.0 | 0.00 | 0.00 | 0.00 | 10 | 1017.4 |
| 20260503034209 | 51 | 35 | 0.0 | 0.0 | 0.00 | 0.00 | 0.00 | 10 | 1017.6 |
| 20260503033706 | 51 | 46 | 0.0 | 0.0 | 0.00 | 0.00 | 0.00 | 10 | 1017.5 |
| 20260503033204 | 52 | 36 | 0.0 | 0.0 | 0.00 | 0.00 | 0.00 | 10 | 1017.5 |
| 20260503032702 | 53 | 37 | 0.0 | 0.0 | 0.00 | 0.00 | 0.00 | 10 | 1017.4 |
| 20260503032200 | 53 | 39 | 0.0 | 0.0 | 0.00 | 0.00 | 0.00 | 10 | 1017.5 |
| 20260503031657 | 52 | 41 | 0.0 | 0.0 | 0.00 | 0.00 | 0.00 | 10 | 1017.3 |
| 20260503031155 | 53 | 56 | 0.0 | 0.0 | 0.00 | 0.00 | 0.00 | 10 | 1017.3 |
| 20260503030650 | 54 | 62 | 0.0 | 0.0 | 0.00 | 0.00 | 0.00 | 10 | 1017.4 |
| 20260503030148 | 54 | 62 | 0.0 | 0.0 | 0.00 | 0.00 | 0.00 | 10 | 1017.3 |
| 20260503025644 | 55 | 66 | 0.0 | 0.0 | 0.00 | 0.00 | 0.00 | 10 | 1017.3 |
| 20260503025142 | 54 | 69 | 0.0 | 0.0 | 0.00 | 0.00 | 0.00 | 10 | 1017.0 |
| 20260503024638 | 55 | 70 | 0.0 | 0.0 | 0.00 | 0.00 | 0.00 | 10 | 1017.4 |
| 20260503024136 | 56 | 69 | 0.0 | 0.0 | 0.00 | 0.00 | 0.00 | 10 | 1017.0 |
| 20260503023627 | 57 | 70 | 0.0 | 0.0 | 0.00 | 0.00 | 0.00 | 10 | 1017.2 |
| 20260503023124 | 56 | 69 | 0.0 | 0.0 | 0.00 | 0.00 | 0.00 | 10 | 1017.0 |
| 20260503022620 | 55 | 68 | 0.0 | 0.0 | 0.00 | 0.00 | 0.00 | 10 | 1017.4 |
| 20260503022114 | 55 | 63 | 0.0 | 0.0 | 0.00 | 0.00 | 0.00 | 10 | 1017.2 |
| 20260503021612 | 56 | 62 | 0.0 | 0.0 | 0.00 | 0.00 | 0.00 | 10 | 1016.9 |
| 20260503021108 | 57 | 65 | 0.0 | 0.0 | 0.00 | 0.00 | 0.00 | 10 | 1016.8 |
| 20260503020605 | 58 | 65 | 0.0 | 0.0 | 0.00 | 0.00 | 0.00 | 10 | 1016.9 |
| 20260503015559 | 60 | 63 | 0.0 | 0.0 | 0.00 | 0.00 | 0.00 | 10 | 1016.8 |
| 20260503015056 | 61 | 57 | 0.0 | 0.0 | 0.00 | 0.00 | 0.00 | 10 | 1017.3 |
| 20260503014552 | 62 | 51 | 0.0 | 0.0 | 0.00 | 0.00 | 0.00 | 10 | 1017.0 |
| 20260503014050 | 62 | 49 | 0.0 | 0.0 | 0.00 | 0.00 | 0.00 | 10 | 1017.2 |
| 20260503013547 | 63 | 46 | 0.0 | 0.0 | 0.00 | 0.00 | 0.00 | 10 | 1016.9 |
| 20260503013045 | 64 | 41 | 0.0 | 0.0 | 0.00 | 0.00 | 0.00 | 10 | 1016.9 |
| 20260503012542 | 64 | 27 | 0.0 | 0.0 | 0.00 | 0.00 | 0.00 | 10 | 1017.0 |
| 20260503012038 | 65 | 43 | 0.0 | 0.0 | 0.00 | 0.00 | 0.00 | 10 | 1017.0 |
| 20260503011535 | 66 | 46 | 0.0 | 0.0 | 0.00 | 0.00 | 0.00 | 10 | 1017.0 |
| 20260503011032 | 64 | 50 | 0.0 | 0.0 | 0.00 | 0.00 | 0.00 | 10 | 1017.4 |
| 20260503010528 | 64 | 53 | 0.0 | 0.0 | 0.00 | 0.00 | 0.00 | 10 | 1017.3 |
| 20260503010026 | 63 | 36 | 0.0 | 0.0 | 0.00 | 0.00 | 0.00 | 10 | 1017.5 |
| 20260503005523 | 63 | 338 | 0.0 | 0.0 | 0.00 | 0.00 | 0.00 | 10 | 1017.5 |
| 20260503005020 | 63 | 27 | 0.0 | 0.0 | 0.00 | 0.00 | 0.00 | 10 | 1017.4 |
| 20260503004516 | 64 | 22 | 0.0 | 0.0 | 0.00 | 0.00 | 0.00 | 10 | 1017.3 |
| 20260503004015 | 65 | 17 | 0.0 | 0.0 | 0.00 | 0.00 | 0.00 | 10 | 1017.5 |
| 20260503003511 | 64 | 35 | 0.0 | 0.0 | 0.00 | 0.00 | 0.00 | 10 | 1017.7 |
| 20260503003008 | 64 | 322 | 0.0 | 0.0 | 0.00 | 0.00 | 0.00 | 10 | 1017.5 |
| 20260503002505 | 66 | 39 | 0.0 | 0.0 | 0.00 | 0.00 | 0.00 | 10 | 1017.5 |
| 20260503002001 | 65 | 52 | 0.0 | 0.0 | 0.00 | 0.00 | 0.00 | 10 | 1017.6 |
| 20260503001458 | 64 | 49 | 0.0 | 0.0 | 0.00 | 0.00 | 0.00 | 10 | 1017.8 |
| 20260503000955 | 64 | 153 | 0.0 | 0.0 | 0.00 | 0.00 | 0.00 | 10 | 1017.6 |
| 20260503000453 | 65 | 212 | 0.0 | 0.0 | 0.00 | 0.00 | 0.00 | 10 | 1017.6 |
| 20260502235950 | 65 | 301 | 0.0 | 0.0 | 0.00 | 0.00 | 0.00 | 10 | 1017.9 |
| 20260502235447 | 64 | 359 | 0.0 | 0.0 | 0.00 | 0.00 | 0.00 | 10 | 1017.8 |
| 20260502234944 | 64 | 327 | 0.0 | 0.0 | 0.00 | 0.00 | 0.00 | 10 | 1017.7 |
| 20260502234440 | 66 | 0 | 0.0 | 1.0 | 0.00 | 0.00 | 0.00 | 10 | 1017.9 |
| 20260502233938 | 67 | 316 | 0.0 | 0.0 | 0.00 | 0.00 | 0.00 | 10 | 1017.9 |
| 20260502233433 | 66 | 76 | 0.0 | 0.0 | 0.00 | 0.00 | 0.00 | 10 | 1017.9 |
| 20260502232930 | 65 | 241 | 0.0 | 0.0 | 0.00 | 0.00 | 0.00 | 10 | 1017.9 |
| 20260502232426 | 64 | 71 | 0.0 | 0.0 | 0.00 | 0.00 | 0.00 | 10 | 1018.1 |
| 20260502231923 | 64 | 70 | 0.0 | 0.0 | 0.00 | 0.00 | 0.00 | 10 | 1018.1 |
| 20260502231420 | 64 | 45 | 0.0 | 0.0 | 0.00 | 0.00 | 0.00 | 10 | 1018.3 |
| 20260502230918 | 65 | 51 | 0.0 | 0.0 | 0.00 | 0.00 | 0.00 | 10 | 1018.5 |
| 20260502230411 | 65 | 47 | 0.0 | 0.0 | 0.00 | 0.00 | 0.00 | 10 | 1018.3 |
| 20260502225909 | 64 | 62 | 0.0 | 0.0 | 0.00 | 0.00 | 0.00 | 10 | 1018.5 |
| 20260502225404 | 65 | 64 | 0.0 | 0.0 | 0.00 | 0.00 | 0.00 | 10 | 1018.4 |
| 20260502224902 | 64 | 27 | 0.0 | 0.0 | 0.00 | 0.00 | 0.00 | 10 | 1018.6 |
| 20260502224357 | 63 | 352 | 0.0 | 0.0 | 0.00 | 0.00 | 0.00 | 10 | 1018.8 |
| 20260502223855 | 65 | 319 | 0.0 | 0.0 | 0.00 | 0.00 | 0.00 | 10 | 1018.5 |
| 20260502223353 | 64 | 75 | 0.0 | 0.0 | 0.00 | 0.00 | 0.00 | 10 | 1018.7 |
| 20260502222850 | 64 | 120 | 0.0 | 1.0 | 0.00 | 0.00 | 0.00 | 10 | 1019.0 |
| 20260502222348 | 64 | 30 | 0.0 | 1.0 | 0.00 | 0.00 | 0.00 | 10 | 1018.8 |
| 20260502221843 | 64 | 34 | 0.0 | 1.0 | 0.00 | 0.00 | 0.00 | 10 | 1019.1 |
| 20260502221340 | 64 | 61 | 0.0 | 1.0 | 0.00 | 0.00 | 0.00 | 10 | 1019.0 |
| 20260502220837 | 63 | 28 | 0.0 | 1.0 | 0.00 | 0.00 | 0.00 | 10 | 1019.2 |
| 20260502220333 | 63 | 46 | 0.0 | 1.0 | 0.00 | 0.00 | 0.00 | 10 | 1019.1 |
| 20260502215829 | 63 | 39 | 0.0 | 2.0 | 0.00 | 0.00 | 0.00 | 10 | 1019.0 |
| 20260502215327 | 63 | 39 | 0.0 | 0.0 | 0.00 | 0.00 | 0.00 | 10 | 1019.2 |
| 20260502214823 | 63 | 3 | 0.0 | 0.0 | 0.00 | 0.00 | 0.00 | 10 | 1019.5 |
| 20260502214320 | 63 | 15 | 0.0 | 0.0 | 0.00 | 0.00 | 0.00 | 10 | 1019.4 |
| 20260502213812 | 64 | 6 | 0.0 | 2.0 | 0.00 | 0.00 | 0.00 | 10 | 1019.5 |
| 20260502213309 | 64 | 20 | 0.0 | 0.0 | 0.00 | 0.00 | 0.00 | 10 | 1019.6 |
| 20260502212808 | 64 | 40 | 0.0 | 0.0 | 0.00 | 0.00 | 0.00 | 10 | 1019.6 |
| 20260502212306 | 63 | 41 | 0.0 | 0.0 | 0.00 | 0.00 | 0.00 | 10 | 1019.9 |
| 20260502211803 | 64 | 3 | 0.0 | 0.0 | 0.00 | 0.00 | 0.00 | 10 | 1019.6 |
| 20260502211258 | 62 | 38 | 0.0 | 0.0 | 0.00 | 0.00 | 0.00 | 10 | 1019.8 |
| 20260502210756 | 63 | 67 | 0.0 | 7.0 | 0.00 | 0.00 | 0.00 | 10 | 1019.4 |
| 20260502210253 | 63 | 39 | 0.0 | 0.0 | 0.00 | 0.00 | 0.00 | 10 | 1019.8 |
| 20260502205750 | 63 | 19 | 0.0 | 0.0 | 0.00 | 0.00 | 0.00 | 10 | 1019.9 |
| 20260502205246 | 62 | 53 | 0.0 | 0.0 | 0.00 | 0.00 | 0.00 | 10 | 1019.9 |
| 20260502204744 | 63 | 74 | 0.0 | 0.0 | 0.00 | 0.00 | 0.00 | 10 | 1020.1 |
| 20260502204241 | 63 | 125 | 0.0 | 0.0 | 0.00 | 0.00 | 0.00 | 10 | 1020.0 |
| 20260502203738 | 64 | 21 | 0.0 | 0.0 | 0.00 | 0.00 | 0.00 | 10 | 1020.2 |
| 20260502203236 | 63 | 75 | 0.0 | 0.0 | 0.00 | 0.00 | 0.00 | 10 | 1020.3 |
| 20260502202730 | 63 | 46 | 0.0 | 0.0 | 0.00 | 0.00 | 0.00 | 10 | 1020.3 |
| 20260502202229 | 63 | 119 | 0.0 | 0.0 | 0.00 | 0.00 | 0.00 | 10 | 1020.3 |
| 20260502201726 | 62 | 48 | 0.0 | 0.0 | 0.00 | 0.00 | 0.00 | 10 | 1020.3 |
| 20260502201222 | 61 | 55 | 0.0 | 0.0 | 0.00 | 0.00 | 0.00 | 10 | 1020.6 |
| 20260502200718 | 61 | 22 | 0.0 | 0.0 | 0.00 | 0.00 | 0.00 | 10 | 1020.6 |
| 20260502200215 | 61 | 36 | 0.0 | 0.0 | 0.00 | 0.00 | 0.00 | 10 | 1020.7 |
| 20260502195713 | 60 | 47 | 0.0 | 0.0 | 0.00 | 0.00 | 0.00 | 10 | 1020.8 |
| 20260502195209 | 61 | 80 | 0.0 | 0.0 | 0.00 | 0.00 | 0.00 | 10 | 1020.9 |
| 20260502194706 | 61 | 357 | 0.0 | 0.0 | 0.00 | 0.00 | 0.00 | 10 | 1021.0 |
| 20260502194203 | 60 | 51 | 0.0 | 0.0 | 0.00 | 0.00 | 0.00 | 10 | 1020.8 |
| 20260502193659 | 60 | 40 | 0.0 | 0.0 | 0.00 | 0.00 | 0.00 | 10 | 1020.8 |
| 20260502193156 | 60 | 57 | 0.0 | 0.0 | 0.00 | 0.00 | 0.00 | 10 | 1021.0 |
| 20260502192651 | 59 | 50 | 0.0 | 0.0 | 0.00 | 0.00 | 0.00 | 10 | 1021.0 |
| 20260502192149 | 60 | 41 | 0.0 | 0.0 | 0.00 | 0.00 | 0.00 | 10 | 1021.1 |
| 20260502191645 | 59 | 38 | 0.0 | 0.0 | 0.00 | 0.00 | 0.00 | 10 | 1021.4 |
| 20260502191143 | 59 | 32 | 0.0 | 0.0 | 0.00 | 0.00 | 0.00 | 10 | 1021.6 |
| 20260502190640 | 59 | 25 | 0.0 | 0.0 | 0.00 | 0.00 | 0.00 | 10 | 1021.4 |
| 20260502190138 | 59 | 51 | 0.0 | 0.0 | 0.00 | 0.00 | 0.00 | 10 | 1021.3 |
| 20260502185632 | 59 | 59 | 0.0 | 0.0 | 0.00 | 0.00 | 0.00 | 10 | 1021.3 |
| 20260502185130 | 59 | 44 | 0.0 | 0.0 | 0.00 | 0.00 | 0.00 | 10 | 1021.2 |
| 20260502184626 | 59 | 47 | 0.0 | 0.0 | 0.00 | 0.00 | 0.00 | 10 | 1021.4 |
| 20260502184121 | 59 | 42 | 0.0 | 0.0 | 0.00 | 0.00 | 0.00 | 10 | 1021.6 |
| 20260502183618 | 59 | 72 | 0.0 | 0.0 | 0.00 | 0.00 | 0.00 | 10 | 1021.6 |
| 20260502183114 | 59 | 41 | 0.0 | 0.0 | 0.00 | 0.00 | 0.00 | 10 | 1021.8 |
| 20260502182609 | 59 | 44 | 0.0 | 0.0 | 0.00 | 0.00 | 0.00 | 10 | 1021.6 |
| 20260502182105 | 59 | 64 | 0.0 | 0.0 | 0.00 | 0.00 | 0.00 | 10 | 1021.6 |
| 20260502181603 | 59 | 48 | 0.0 | 0.0 | 0.00 | 0.00 | 0.00 | 10 | 1021.3 |
| 20260502181102 | 59 | 57 | 0.0 | 0.0 | 0.00 | 0.00 | 0.00 | 10 | 1021.6 |
| 20260502180558 | 59 | 46 | 0.0 | 0.0 | 0.00 | 0.00 | 0.00 | 10 | 1021.9 |